Location: Allaines
(49.9632°N, 2.9458°E)
Time: 01:49:35
(UTC+00:00)

Cosmos 1825 - Pass Details

Date: 09 April 2020
Orbit: 502 x 509 km, 82.5° (Epoch: 03 June)

Event Time Altitude Azimuth Distance (km) Brightness Sun altitude
Rises 19:59:55 0° 4° (N) 2,631 6.2 -13.7°
Reaches altitude 10° 20:02:45 10° 26° (NNE) 1,738 4.9 -14.1°
Maximum altitude 20:05:09 16° 66° (ENE) 1,399 4.1 -14.4°
Enters shadow 20:05:36 16° 74° (ENE) 1,411 4.0 -14.5°
